Reflectivity
-15 -20 -20 -20 -20 -20 -20 -20 -20 -20 -20 -20 -20 -20 -20 -20 -20 -20 -20 -20 -20 -20 -20 -20 -20 -20 -20 -20 -20 -20 -20 -20 -20 -20 -20 -20 -20 -20 -20 -20 -20 -20 -20 -20 -20
3 2 -17 -20 -20 -20 -20 -20 -20 -20 -20 -20 -20 -20 -20 -20 -20 -20 -20 -20 -20 -20 -20 -20 -20 -20 -20 -20 -20 -20 -20 -20 -20 -20 -20 -20 -20 -20 -20 -20 -20 -20 -20 -19 -20
19 3 -19 -20 -20 -20 -20 -20 -20 -20 -20 -20 -20 -20 -20 -20 -20 -20 -20 -20 -20 -20 -20 -20 -20 -20 -20 -20 -20 -20 -20 -20 -20 -20 -20 -20 -20 -20 -20 -20 -20 -20 -20 -20 -20
15 -20 -20 -20 -20 -20 -20 -20 -20 -20 -20 -20 -20 -20 -20 -20 -20 -20 -20 -20 -20 -20 -20 -20 -20 -20 -20 -20 -20 -20 -20 -20 -20 -20 -20 -20 -20 -20 -20 -20 -20 -20 -20 -20 -20
-20 -20 -20 -20 -20 -20 -20 -20 -20 -20 -20 -20 -20 -20 -20 -20 -20 -20 -20 -20 -20 -20 -20 -20 -20 -20 -20 -20 -20 -20 -20 -20 -20 -20 -20 -20 -20 -20 -20 -20 -20 -20 -20 -20 -20
-20 -20 -20 -20 -20 -20 -20 -20 -20 -20 -20 -20 -20 -20 -20 -20 -20 -20 -20 -20 -20 -20 -20 -20 -20 -20 -20 -20 -20 -20 -20 -20 -20 -20 -20 -20 -20 -20 -20 -20 -20 -20 -20 -20 -20
-20 -20 -20 -20 -20 -20 -20 -20 -20 -20 -20 -20 -20 -20 -20 -20 -20 -20 -20 -20 -20 -20 -20 -20 -20 -20 -20 -20 -20 -20 -20 -20 -20 -20 -20 -20 -20 -20 -20 -20 -20 -20 -20 -20 -20
-20 -20 -20 -20 -20 -20 -20 -20 -20 -20 -20 -20 -20 -20 -20 -20 -20 -20 -20 -20 -20 -20 -20 -20 -20 -20 -20 -20 -20 -20 -20 -20 -20 -20 -20 -20 -20 -20 -20 -20 -20 -20 -20 -20 -20
-20 -20 -20 -20 -20 -20 -20 -20 -20 -20 -20 -20 -20 -20 -20 -20 -20 -20 -20 -20 -20 -20 -20 -20 -20 -20 -20 -20 -20 -20 -20 -20 -20 -20 -20 -20 -20 -20 -20 -20 -20 -20 -20 -20 -20
-20 -20 -20 -20 -20 -20 -20 -20 -20 -20 -20 -20 -20 -20 -20 -20 -20 -20 -20 -20 -20 -20 -20 -20 -20 -20 -20 -20 -20 -20 -20 -20 -20 -20 -20 -20 -20 -20 -20 -20 -20 -20 -20 -20 -20
-20 -20 -20 -20 -20 -20 -20 -20 -20 -20 -20 -20 -20 -20 -20 -20 -20 -20 -20 -20 -20 -20 -20 -20 -20 -20 -20 -20 -20 -20 -20 -20 -20 -20 -20 -20 -20 -20 -20 -20 -20 -20 -20 -20 -20
-20 -20 -20 -20 -20 -20 -20 -20 -20 -20 -20 -20 -20 -20 -20 -20 -20 -20 -20 -20 -20 -20 -20 -20 -20 -20 -20 -20 -20 -20 -20 -20 -20 -20 -20 -20 -20 -20 -20 -20 -20 -20 -20 -20 -20
-20 -20 -20 -20 -20 -20 -20 -20 -20 -20 -20 -20 -20 -20 -20 -20 -20 -20 -20 -20 -20 -20 -20 -20 -20 -20 -20 -20 -20 -20 -20 -20 -20 -20 -20 -20 -20 -20 -20 -20 -20 -20 -20 -20 -20
-20 -20 -20 -20 -20 -20 -20 -20 -20 -20 -20 -20 -20 -20 -20 -20 -20 -20 -20 -20 -20 -20 -20 -20 -20 -20 -20 -20 -20 -20 -20 -20 -20 -20 -20 -20 -20 -20 -20 -20 -20 -20 -20 -20 -20
-20 -20 -20 -20 -20 -20 -20 -20 -20 -20 -20 -20 -20 -20 -20 -20 -20 -20 -20 -20 -20 -20 -20 -20 -20 -20 -20 -20 -20 -20 -20 -20 -20 -20 -20 -20 -20 -20 -20 -20 -20 -20 -20 -20 -20
-20 -20 -20 -20 -20 -20 -20 -20 -20 -20 -20 -20 -20 -20 -20 -20 -20 -20 -20 -20 -20 -20 -20 -20 -20 -20 -20 -20 -20 -20 -20 -20 -20 -20 -20 -20 -20 -20 -20 -20 -20 -20 -20 -20 -20
-20 -20 -20 -20 -20 -20 -20 -20 -20 -20 -20 -20 -20 -20 -20 -20 -20 -20 -20 -20 -20 -20 -20 -20 -20 -20 -20 -20 -20 -20 -20 -20 -20 -20 -20 -20 -20 -20 -20 -20 -20 -20 -20 -20 -20
-20 -20 -20 -20 -20 -20 -20 -20 -20 -20 -20 -20 -20 -20 -20 -20 -20 -20 -20 -20 -20 -20 -20 -20 -20 -20 -20 -20 -20 -20 -20 -20 -20 -20 -20 -20 -20 -20 -20 -20 -20 -20 -20 -20 -20
-20 -20 -20 -20 -20 -20 -20 -20 -20 -20 -20 -20 -20 -20 -20 -20 -20 -20 -20 -20 -20 -20 -20 -20 -20 -20 -20 -20 -20 -20 -20 -20 -20 -20 -20 -20 -20 -20 -20 -20 -20 -20 -20 -20 -20
-20 -20 -20 -20 -20 -20 -20 -20 -20 -20 -20 -20 -20 -20 -20 -20 -20 -20 -20 -20 -20 -20 -20 -20 -20 -20 -20 -20 -20 -20 -20 -20 -20 -20 -20 -20 -20 -20 -20 -20 -20 -20 -20 -20 -20
-20 -20 -20 -20 -20 -20 -20 -20 -20 -20 -20 -20 -20 -20 -20 -20 -20 -20 -20 -20 -20 -20 -20 -20 -20 -20 -20 -20 -20 -20 -20 -20 -20 -20 -20 -20 -20 -20 -20 -20 -20 -20 -20 -20 -20
-20 -20 -20 -20 -20 -20 -20 -20 -20 -20 -20 -20 -20 -20 -20 -20 -20 -20 -20 -20 -20 -20 -20 -20 -20 -20 -20 -20 -20 -20 -20 -20 -20 -20 -20 -20 -20 -20 -20 -20 -20 -20 -20 -20 -20
-20 -20 -20 -20 -20 -20 -20 -20 -20 -20 -20 -20 -20 -20 -20 -20 -20 -20 -20 -20 -20 -20 -20 -20 -20 -20 -20 -20 -20 -20 -20 -20 -20 -20 -20 -12 -20 -20 -20 -20 -20 -20 -20 -20 -20
-20 -20 -20 -20 -20 -20 -20 -20 -20 -20 -20 -20 -20 -20 -20 -20 -20 -20 -20 -20 -20 -20 -20 -20 -20 -20 -20 -20 -20 -20 -20 -20 -20 -20 -20 -20 -20 -15 -9 -14 -20 -20 -20 -20 -20
-20 -20 -20 -20 -20 -20 -20 -20 -20 -20 -20 -20 -20 -20 -20 -20 -20 -20 -20 -20 -20 -20 -20 -20 -20 -20 -20 -20 -20 -20 -20 -20 -20 -20 -19 -20 -20 -20 -20 -20 -20 -20 -20 -20 -20
-20 -20 -20 -20 -20 -20 -20 -20 -20 -20 -20 -20 -20 -20 -20 -20 -20 -20 -20 -20 -20 -20 -20 -20 -12 -20 2 -20 -20 -20 -20 -20 -20 -20 -20 -20 -20 -20 -20 -20 -20 -20 -20 -20 -20
-20 -20 -20 -20 -20 -20 -20 -20 -20 -20 -20 -20 -20 -20 -20 -20 -20 -20 -20 -20 -20 -20 -20 -20 -20 -15 -20 -20 -20 -20 -20 -20 -20 -20 -20 -20 -20 -20 -20 -20 -20 -20 -20 -20 -20
Wind_Speed
17 17 18 19 20 20 20 20 18 17 17 16 16 15 14 15 15 4 5 4 9 17 17 10 5 9 3 4 5 3 6 2 2 2 2 4 5 5 4 2 5 3 2 3 1
17 18 18 19 21 21 21 20 19 18 17 16 15 14 12 12 2 6 5 12 15 17 8 8 8 9 4 3 4 5 5 1 1 1 2 2 2 4 4 7 4 4 4 4 3
18 19 20 20 21 22 22 21 20 19 17 16 14 13 11 8 2 3 9 13 15 15 4 2 4 1 5 3 4 1 4 3 2 3 1 2 6 1 3 5 6 5 7 7 2
19 20 21 20 21 22 21 22 20 20 17 14 13 11 12 1 1 3 10 13 10 7 6 6 7 6 4 4 4 5 2 2 1 1 2 2 2 3 4 8 7 8 7 5 5
20 20 20 20 21 21 22 21 20 19 14 11 10 8 3 5 2 4 8 9 6 5 7 4 7 3 3 4 3 2 0 3 2 6 4 2 5 5 7 9 9 9 6 8 7
19 20 20 20 21 22 22 20 19 16 11 10 9 8 1 5 4 5 7 6 5 5 7 7 3 2 1 3 3 2 4 5 4 3 3 2 4 2 5 2 6 4 7 7 7
20 20 20 21 22 23 23 22 18 13 9 8 8 3 7 3 3 6 6 2 4 3 3 2 2 5 3 5 5 3 6 6 2 1 3 3 1 4 3 4 6 7 7 6 6
20 20 21 22 23 24 24 23 16 8 6 6 6 1 3 2 3 4 6 3 5 1 1 3 2 3 3 3 4 5 4 6 5 2 2 4 8 6 5 5 8 9 6 3 4
20 21 22 22 24 24 23 21 7 2 5 6 2 2 2 3 3 5 3 4 6 2 3 3 2 3 5 4 5 7 2 4 9 5 3 2 9 7 7 6 9 8 4 3 3
20 21 22 22 22 25 23 8 5 4 3 2 2 4 5 3 4 5 3 3 3 6 4 5 6 4 5 6 2 2 2 4 5 5 5 7 18 12 8 6 9 6 6 4 5
20 22 23 22 21 24 11 4 8 7 10 3 5 2 3 6 2 3 3 5 2 4 4 4 7 2 2 0 3 2 3 5 6 4 6 5 13 17 12 5 6 6 6 6 5
20 22 23 22 19 15 6 8 2 4 5 3 4 4 4 1 3 4 8 3 4 3 3 7 2 2 3 2 2 2 3 6 6 3 4 6 16 11 4 4 7 8 7 6 2
20 22 24 22 12 5 11 6 1 4 1 6 3 3 4 4 2 5 6 4 3 3 4 3 1 1 2 3 4 3 3 2 5 7 3 8 7 5 3 2 2 4 2 2 5
19 21 22 23 7 3 4 7 4 4 5 7 3 2 2 3 3 1 4 4 4 5 4 1 1 2 2 2 2 4 1 3 6 5 3 4 6 6 3 3 4 3 3 5 7
20 19 19 10 1 4 4 5 1 3 6 4 3 1 2 1 3 1 2 4 3 5 6 3 1 1 2 2 1 6 2 4 2 2 4 2 3 9 3 2 1 6 6 4 5
20 20 18 3 2 2 5 4 3 7 3 4 3 3 4 1 1 1 3 2 1 2 0 5 2 2 3 2 2 4 3 4 3 3 3 4 4 7 3 4 3 1 4 3 6
20 20 9 1 2 5 4 3 6 7 4 5 3 4 4 3 2 1 1 3 2 6 5 4 2 1 2 2 4 6 6 5 7 5 5 3 2 10 4 1 5 2 3 5 5
21 15 2 2 4 3 3 5 7 3 2 4 4 6 2 4 3 2 2 3 4 4 2 2 8 3 2 1 4 1 4 7 5 2 5 5 7 6 2 4 1 0 3 5 6
15 4 2 3 3 2 5 7 3 1 3 6 7 4 4 4 2 6 2 3 3 2 3 1 5 1 1 1 4 1 1 3 2 2 2 4 8 7 5 3 3 4 4 6 7
2 3 3 5 3 4 6 3 3 1 2 2 1 3 3 5 7 7 3 4 1 1 2 2 5 2 0 1 1 2 0 2 2 2 5 5 7 7 5 2 5 7 6 6 5
3 3 4 5 3 6 5 2 0 2 2 2 2 3 2 3 3 4 3 3 3 3 3 1 3 6 1 4 5 1 2 2 2 4 4 3 7 6 5 2 5 7 6 6 5
2 2 4 3 5 2 3 2 2 1 3 2 2 3 2 1 3 3 3 2 3 1 2 2 1 4 10 4 3 3 4 5 4 6 3 2 8 4 7 2 5 6 6 6 5
2 3 3 4 3 2 4 1 2 1 0 2 1 2 2 1 3 3 2 4 6 3 1 1 1 5 10 4 2 1 1 3 1 2 7 3 10 3 3 10 13 7 10 7 6
3 3 5 5 0 4 2 1 2 2 1 2 2 1 1 2 4 4 3 1 5 3 1 0 3 7 8 2 2 7 9 7 4 7 9 14 24 25 17 18 13 15 10 9 7
3 2 2 2 2 2 1 1 2 3 0 1 1 2 1 3 4 4 2 5 4 5 2 3 5 4 7 6 5 12 12 11 14 15 13 16 22 25 21 19 17 8 8 6 6
3 3 2 1 2 3 2 4 5 1 1 1 1 0 1 3 2 5 4 2 7 4 5 6 5 1 6 8 10 15 14 12 17 18 15 19 21 14 11 7 8 8 8 7 7
1 2 4 2 0 2 3 3 4 3 0 1 4 1 3 6 3 8 9 8 8 1 3 4 4 6 5 4 11 11 5 6 4 2 4 3 5 6 8 9 11 9 7 7 8
Wind_Direction
13 9 4 360 356 353 351 352 344 340 336 335 333 335 335 339 326 37 46 277 328 330 333 308 343 357 46 48 43 94 61 60 23 53 225 336 6 311 289 341 332 307 60 305 175
7 2 358 356 351 345 345 348 340 336 334 332 329 332 333 340 352 45 304 336 338 339 343 353 333 353 32 37 16 75 87 134 333 173 236 278 28 305 2 340 293 309 333 32 17
1 356 352 351 347 343 341 341 337 331 331 328 326 330 328 331 84 338 335 342 346 348 300 281 299 158 47 28 2 78 139 188 200 169 219 310 326 308 319 309 239 282 288 321 98
353 350 348 347 344 339 338 336 333 329 332 325 328 332 320 258 121 315 335 349 354 358 14 31 12 27 54 27 346 95 55 126 230 342 322 266 242 288 221 239 254 280 279 282 329
352 349 349 347 342 340 336 333 330 333 335 329 331 340 336 53 15 294 336 345 349 7 29 66 50 21 42 321 358 66 280 309 295 293 261 277 253 236 258 257 272 273 265 268 293
349 346 343 341 339 337 335 330 330 333 339 335 337 328 4 73 280 341 338 340 359 17 21 29 79 196 287 327 44 317 292 270 272 252 274 295 276 173 277 304 348 297 267 268 265
347 345 343 341 337 334 332 327 327 324 326 335 340 331 62 131 344 321 6 305 341 10 18 17 106 82 340 350 350 345 355 336 258 250 276 313 191 211 250 3 323 316 276 324 298
348 347 345 341 335 332 330 329 320 305 307 321 335 350 83 296 303 7 340 325 354 318 37 286 343 113 104 288 22 15 47 14 328 7 334 40 271 257 251 2 314 314 307 2 74
350 349 348 345 338 330 331 333 37 23 302 315 350 63 60 320 27 305 334 322 314 344 300 319 30 69 23 47 30 17 340 346 326 15 332 352 277 253 299 299 298 294 263 154 124
351 349 347 346 343 330 330 339 19 18 318 277 306 42 6 327 309 321 291 340 343 337 24 37 39 56 25 48 206 278 347 315 261 304 348 279 270 291 279 264 266 267 199 200 183
352 348 345 344 347 331 349 15 17 354 35 45 286 277 286 299 287 313 327 340 6 48 37 1 63 73 294 318 162 184 218 264 255 269 343 261 284 289 295 251 275 215 205 216 202
351 347 344 339 348 345 1 70 132 199 327 316 286 290 266 21 339 331 355 38 51 42 5 21 70 217 282 301 266 261 287 289 284 305 326 307 292 287 287 222 204 203 221 221 230
350 346 343 339 336 46 64 59 154 148 47 319 325 320 308 2 356 321 15 334 39 40 34 133 211 319 352 342 348 288 237 276 268 318 271 317 308 330 317 242 202 216 212 188 227
349 348 347 334 57 332 50 331 349 113 78 315 358 336 329 314 2 18 14 12 6 359 6 296 10 30 357 302 110 297 324 312 297 23 288 58 275 303 319 308 313 281 325 335 340
345 345 348 11 218 54 292 318 312 67 63 277 312 206 283 12 285 58 28 32 25 337 52 292 329 55 303 258 92 243 315 277 261 254 29 297 67 270 311 219 279 53 38 341 293
340 337 345 353 22 204 301 317 60 44 275 342 313 326 352 96 265 92 49 79 142 25 193 247 308 179 223 266 216 305 335 33 55 83 354 249 127 282 202 201 128 103 249 329 341
335 330 337 324 290 306 338 61 34 94 289 326 325 348 346 287 315 234 59 19 75 32 357 331 269 238 217 296 16 45 46 336 354 11 231 328 11 246 271 322 159 217 326 310 305
331 325 354 222 292 352 57 45 72 278 337 335 331 309 260 3 306 311 35 24 29 91 89 62 328 192 170 207 207 341 133 149 238 249 276 334 247 261 273 150 204 239 270 294 330
338 336 10 278 311 65 71 54 167 226 288 335 326 359 331 347 344 1 13 173 155 154 164 54 277 73 202 164 130 281 205 174 113 193 70 243 282 295 244 242 334 291 323 329 319
36 354 296 307 26 57 67 133 162 125 326 358 339 30 324 323 352 10 319 340 9 10 132 209 303 227 168 64 44 186 249 34 23 302 270 292 283 238 264 301 327 323 322 310 312
37 45 257 339 66 50 105 182 154 329 11 50 282 305 348 341 322 298 304 8 1 326 348 336 146 298 74 211 194 130 245 229 172 159 213 279 262 223 244 192 293 302 294 281 291
56 18 297 23 54 36 114 154 211 13 1 320 256 246 208 321 265 260 270 274 320 337 359 353 142 275 243 277 243 201 220 169 132 267 223 182 264 275 242 161 326 291 289 277 262
65 279 319 66 102 14 306 178 207 177 165 348 300 352 24 285 308 238 300 21 6 329 176 328 330 333 325 7 19 342 242 241 203 89 212 206 261 188 39 314 308 296 314 271 268
68 354 328 40 56 132 90 309 255 256 225 223 219 57 302 246 208 276 307 9 320 321 261 133 207 192 237 278 338 284 297 300 257 266 276 238 280 283 294 292 296 301 293 264 262
42 233 187 293 302 110 107 222 231 239 250 272 67 58 337 294 292 234 24 336 313 294 280 185 230 221 258 288 275 273 277 265 258 258 253 281 280 284 297 298 293 294 303 280 281
142 136 20 257 276 158 205 222 208 185 246 221 171 155 325 224 267 305 359 197 243 352 12 357 277 265 280 260 276 291 275 269 261 263 260 264 273 299 310 329 340 338 332 312 297
166 26 101 296 252 110 230 205 197 152 53 65 116 47 254 252 245 245 228 244 254 345 30 327 317 351 281 352 326 288 220 249 260 12 261 307 305 313 319 358 12 335 351 342 323